Regional Weather Roundup
Issued by NWS Grand Forks, ND

Home | Current Version | Previous Version | Graphics & Text | Print | Product List | Glossary On
Versions: 1 2 3 4 5 6 7 8 9 10 11 12 13 14 15 16 17 18 19 20 21 22 23 24 25 26 27 28 29 30 31 32 33 34 35 36 37 38 39 40 41 42 43 44 45 46 47 48 49 50
000
ASUS43 KFGF 152331
RWRFGF
PRAIRIE TO PINES  WEATHER ROUNDUP
NATIONAL WEATHER SERVICE EASTERN NORTH DAKOTA/GRAND FORKS ND
600 PM CDT TUE AUG 15 2017

 **SATELLITE DATA USED TO AUGMENT SKY COVER AT AUTOMATED STATIONS**
 *****  WEATHER ACROSS EASTERN NORTH DAKOTA  *****

CITY           SKY/WX    TMP DP  RH WIND       PRES   REMARKS
GRAND FORKS    CLOUDY    74  60  61 S7        29.89F
GRAND FRKS AFB CLOUDY    72  58  62 S10       29.90S
DEVILS LAKE    RAIN      65  61  87 SE7       29.90S FOG
FARGO          FAIR      73  59  61 SE13      29.89F
WAHPETON ARPT  FAIR      68  55  64 SE9       29.90F
$$

 ***** WEATHER ACROSS CENTRAL AND WESTERN NORTH DAKOTA  *****

CITY           SKY/WX    TMP DP  RH WIND       PRES   REMARKS
BISMARCK       RAIN      65  65 100 N9        29.81F FOG
MINOT          CLOUDY    66  63  90 E12       29.86S
JAMESTOWN      LGT RAIN  66  64  93 SE7       29.85F FOG
MINOT AFB      CLOUDY    66  62  86 SE8       29.85S
GARRISON         N/A     64  63  96 E6        29.86R
WILLISTON      FAIR      74  61  63 S5        29.84S
DICKINSON      RAIN      63  63 100 N7        29.86R FOG
HETTINGER      LGT RAIN  66  62  87 N5        29.87R FOG
$$

 *****  OTHER AIRPORT OBSERVATIONS IN OUR AREA  *****

CITY           SKY/WX    TMP DP  RH WIND       PRES   REMARKS
WALHALLA       FAIR      70  66  88 SE7       29.90S
GRAFTON AIRPOR CLOUDY    70  63  78 S5        29.92R
VALLEY CITY AR   N/A     70  66  88 SE14      29.87F
CANDO          DRIZZLE   63  63 100 SE5       29.91F
CAVALIER APRT  FAIR      72  61  68 S5        29.90S
GWINNER        PTCLDY    72  64  78 SE10      29.85F
SHEYENNE NWR     N/A     73  63  69 S8        29.95S
ROLLA          FAIR      63  63 100 SE7       29.91F
 ***** THE ABOVE OBSERVATIONS ARE NON NWS ARE NOT QUALITY
       CONTROLLED AND MAY MIS-REPORT RAIN FOR SNOW...
$$

  *****  WEATHER ACROSS NORTHERN MINNESOTA  *****

CITY           SKY/WX    TMP DP  RH WIND       PRES   REMARKS
FLAG ISLAND    FAIR      75  63  64 CALM      29.91S
WARROAD        FAIR      75  66  73 E5        29.92F
ROSEAU         FAIR      79  63  57 S5        29.91F
HALLOCK        PTSUNNY   75  61  60 SW7       29.90S
THF RVR FALLS  FAIR      73  58  59 S7        29.93S
BAUDETTE       PTSUNNY   78  56  46 S3        29.92S
WASKISH        FAIR      75  61  60 SW3       29.94S
CROOKSTON      PTSUNNY   73  57  56 S8        29.91F
STEPHEN NDAWN    N/A    N/A N/A N/A S6          N/A
GREENBUSH NDAW   N/A     75  59  57 SW8         N/A
$$
  *****  WEATHER ACROSS CENTRAL AND WEST MINNESOTA  *****

CITY           SKY/WX    TMP DP  RH WIND       PRES   REMARKS
FOSSTON        PTSUNNY   72  59  64 SE6       29.94F
BEMIDJI        FAIR      74  57  55 S6        29.95F
PARK RAPIDS    FAIR      74  59  59 SE8       29.95S
ELBOW LAKE     FAIR      71  60  69 SE7       29.92S
WADENA         FAIR      70  61  73 SE7       29.94F
DETROIT LAKES  FAIR      72  59  64 SE9       29.94F
MOORHEAD       FAIR      72  59  64 SE8       29.91S
FERGUS FALLS   FAIR      72  59  64 SE10G17   29.90S
MORRIS MN      FAIR      72  63  73 SE10      29.90F
STAPLES        LGT RAIN  70  59  68 CALM      29.96S
$$
  *****  WEATHER ELSEWHERE ACROSS MINNESOTA  *****

CITY           SKY/WX    TMP DP  RH WIND       PRES   REMARKS
DULUTH         FAIR      68  59  73 E8        30.00R
INTRNTL FALLS  FAIR      78  54  43 E8        29.94R
ELY            FAIR      73  52  46 S9        29.99R
CLOQUET        FAIR      70  57  64 E8        29.99S
WHEATON        FAIR      70  61  73 E9        29.91F
BRAINERD       FAIR      74  58  57 S6        29.97R
HIBBING        FAIR      73  58  59 SE14      29.97R
ALEXANDRIA     CLOUDY    70  58  65 E8        29.95S
SAINT CLOUD    FAIR      74  58  57 E6        29.95S
MINNEAPOLIS    CLOUDY    75  58  55 SE10      29.95S
$$

  *****  WEATHER ACROSS SOUTH DAKOTA  *****

CITY           SKY/WX    TMP DP  RH WIND       PRES   REMARKS
SIOUX FALLS    LGT RAIN  67  67 100 E7        29.87F
BROOKINGS      FAIR      69  62  78 SE10      29.90F
WATERTOWN      FAIR      70  62  76 SE8G18    29.88F
HURON          PTSUNNY   73  64  73 SE16G23   29.83F
SISSETON         N/A     71  63  75 SE10      29.88S
ABERDEEN       FAIR      72  65  78 SE6       29.84F
MITCHELL       FAIR      70  67  90 SE13      29.84F
PIERRE         FAIR      78  65  63 SE17      29.76F
MOBRIDGE       LGT RAIN  71  68  90 S9        29.75F
RAPID CITY     LGT RAIN  70  58  65 N15       29.87S
$$

  *****  SOME WEATHER IN NEARBY STATES *****

CITY           SKY/WX    TMP DP  RH WIND       PRES   REMARKS
GLASGOW MT     FAIR      81  35  19 NW14      29.82F
GREAT FALLS MT FAIR      80  29  15 N6        29.87S
CHEYENNE WY    FAIR      61  49  64 N6        29.97F
SCOTTSBLUFF NE LGT RAIN  76  60  57 W8        29.86R
OMAHA NE       FAIR      86  71  60 SE16      29.80F HX  91
DES MOINES IA  PTSUNNY   79  70  74 N6        29.88R
DAVENPORT IA   FAIR      77  68  73 NE9       29.92F
CHICAGO IL     PTSUNNY   75  62  64 NE12      29.95R
EAU CLAIRE WI  FAIR      75  55  49 E7        29.97R
LA CROSSE WI   FAIR      77  60  55 SE9       29.95S
$$

  *****  SOME NATIONAL WEATHER *****

CITY           SKY/WX    TMP DP  RH WIND       PRES   REMARKS
LA GUARDIA NY  LGT RAIN  73  72  96 S9        29.89S
RALEIGH NC     PTSUNNY   87  74  64 NW5       29.85R HX  95
ATLANTA GA     PTSUNNY   85  74  69 W7        29.97R HX  92
NEW ORLEANS LA LGT RAIN  77  77 100 S7        29.96F
OKLAHOMA CITY  PTSUNNY   81  72  74 N7        29.80R
ALBUQUERQUE NM FAIR      86  30  13 W13       29.97F
SALT LAKE CITY FAIR      82  39  21 VRB3      29.91F
LOS ANGELES CA FAIR      72  61  68 W12G20    29.90S
BOISE ID       FAIR      86  33  15 VRB6      29.85F
SEATTLE WA     FAIR      76  48  37 W9        29.98F
$$

*** WEATHER ACROSS MANITOBA...SASKATCHEWAN AND ONTARIO ***
                ***ONTARIO***

CITY           SKY/WX    TMP DP  RH WIND       PRES   REMARKS
GERALDTON      PTSUNNY   68  45  42 SW2       30.01R
THUNDER BAY    PTSUNNY   70  45  40 SE6       30.01R
SIOUX LOOKOUT  PTSUNNY   75  52  43 S6        29.95S
TORONTO        MOSUNNY   77  61  57 N10       29.87S
BIG TROUT LK   SUNNY     72  46  40 W8        29.93S
PICKLE LAKE    PTSUNNY   70  46  43 S6        29.98S
DRYDEN         SUNNY     79  50  36 E6        29.94S
KENORA         PTSUNNY   77  57  50 SW8       29.94R
$$
                *** MANITOBA***

CITY           SKY/WX    TMP DP  RH WIND       PRES   REMARKS
BRANDON        CLOUDY    66  64  94 SE5       29.87F
DAUPHIN        CLOUDY    75  61  60 SE5       29.83F
ISLAND LAKE    PTSUNNY   72  54  53 SE9       29.91S
PILOT MOUND      N/A     64  63  94 SE5         N/A
THE PAS        PTSUNNY   68  61  77 SE9       29.78F
THOMPSON       PTSUNNY   81  50  34 S8        29.84S
WINNIPEG       CLOUDY    75  59  57 S10G17    29.88S
LYNN LAKE      SUNNY     79  50  36 MISG      29.78S
CHURCHILL      SUNNY     79  61  53 N6        29.78F
GILLAM         SUNNY     81  46  30 SW8       29.86S
$$
                ***SASKATCHEWAN***

CITY           SKY/WX    TMP DP  RH WIND       PRES   REMARKS
ESTEVAN        CLOUDY    73  61  64 S6        29.83R THUNDER
KINDERSLEY     PTSUNNY   70  43  37 W13G18    29.83S
LLOYDMINSTER   MOSUNNY   66  52  59 W12G18    29.74S
PRINCE ALBERT  MOSUNNY   66  50  55 SW18G28   29.75R
REGINA         CLOUDY    73  46  38 NW16      29.83S
YORKTON        PTSUNNY   70  59  68 SE13      29.81R
N. BATTLEFORD  SUNNY     64  52  63 W16G22    29.78S
LA RONGE       LGT RAIN  73  55  53 SE12      29.65F
SASKATOON      PTSUNNY   68  48  49 W15       29.80S
SWIFT CURRENT  MOSUNNY   72  39  30 W12       29.87S
$$
NOTE: THESE ARE AUTOMATED STATIONS WITH LIMITED QUALITY CONTROL
      "FAIR" INDICATES FEW OR NO CLOUDS BELOW 12,000 FEET WITH NO
      SIGNIFICANT WEATHER AND/OR OBSTRUCTIONS TO VISIBILITY.
      SKY/WX - SKY CONDITION AND SIGNIFICANT WEATHER.
      TMP - AIR TEMPERATURE.    DP   - DEWPOINT TEMPERATURE.
      RH  - RELATIVE HUMIDITY.  PRES - PRESSURE.
      HX  - HEAT INDEX.         WCI  - WIND CHILL INDEX.
$




USA.gov is the U.S. government's official web portal to all federal, state and local government web resources and services.